Flag for U.S.A. Weather past 2 weeks in Pittsburgh, Pennsylvania, U.S.A.

Now
50 °F

Sunny.


Feels Like: 46 °F
Forecast: 39 / 53 °F
Wind: 10 mph from North

Location: Allegheny County Airport

Current Time: Apr 26, 2015 at 9:52:11 PM

Latest Report: Apr 26, 2015 at 8:53 PM


Visibility: 10 mi

Pressure: 29.80 "Hg

Humidity: 36%

Dew point: 24 °F

Location of PittsburghLocation

Historic Weather in Pittsburgh — Graph

°F

Pittsburgh temperature yesterday

Maximum temperature yesterday: 53 °F (at 4:53 PM)
Minimum temperature yesterday: 33 °F (at 6:53 AM)
Average temperature yesterday: 43 °F

Past Weeks' High & Low Weather Summary

 TemperatureHumidityPressure
High80 °F (Apr 13, 3:53 PM)88% (Apr 25, 8:53 AM)30.34 "Hg (Apr 25, 8:53 AM)
Low30 °F (Apr 24, 6:53 AM)13% (Apr 15, 4:53 PM)29.46 "Hg (Apr 20, 2:53 PM)
Average53 °F47%29.98 "Hg
* Reported Apr 11 7:53 PM — Apr 26 7:53 PM, Pittsburgh, Weather by CustomWeather, © 2015

Note: Actual official high and low records may vary slightly from our data, if they occured in-between our weather recording intervals... More about our weather records

Advertising

Pittsburgh weather history for previous 24 hours

 ConditionsComfort  
Time TempWeatherWind HumidityBarometerVisibility
7:53 PM
Sun, Apr 26
52 °FSunny.16 mph32%29.79 "Hg10 mi
6:53 PM56 °FPassing clouds.12 mph28%29.78 "Hg10 mi
5:53 PM59 °FPartly sunny.12 mph25%29.75 "Hg10 mi
4:53 PM59 °FScattered clouds.10 mph25%29.74 "Hg10 mi
3:53 PM60 °FSunny.9 mph24%29.75 "Hg10 mi
2:53 PM59 °FSunny.7 mph25%29.76 "Hg10 mi
1:53 PM57 °FPassing clouds.9 mph24%29.77 "Hg10 mi
12:53 PM56 °FSunny.8 mph27%29.77 "Hg10 mi
11:53 AM53 °FSunny.6 mph30%29.78 "Hg10 mi
10:53 AM51 °FSunny.6 mph33%29.78 "Hg10 mi
9:53 AM50 °FSunny.9 mph36%29.77 "Hg10 mi
8:53 AM46 °FSunny.5 mph40%29.77 "Hg10 mi
7:53 AM43 °FSunny.6 mph45%29.75 "Hg10 mi
6:53 AM41 °FClear.5 mph49%29.73 "Hg10 mi
5:53 AM42 °FClear.3 mph45%29.70 "Hg10 mi
4:53 AM42 °FClear.6 mph43%29.69 "Hg10 mi
3:53 AM42 °FClear.3 mph65%29.69 "Hg10 mi
2:53 AM43 °FClear.No wind71%29.69 "Hg10 mi
1:53 AM44 °FPassing clouds.5 mph68%29.69 "Hg10 mi
12:53 AM45 °FOvercast.7 mph63%29.69 "Hg10 mi
11:53 PM
Sat, Apr 25
47 °FOvercast.9 mph39%29.69 "Hg10 mi
10:53 PM48 °FOvercast.5 mph29%29.66 "Hg10 mi
9:53 PM49 °FOvercast.3 mph27%29.69 "Hg10 mi
Weather by CustomWeather, © 2015

See weather overviewHow to use our weather pages